GFSSGP_sfc_dewp_159.txt.gz
Dewpoint
62 55 47 45 40 39 36 37 40 41 41 43 44 45 47 48 48 49 60 61 66 68 69 69 70 70 69 69 68 67 66 64 64 64 65 67 65 64 64 64 63 62 61 65 65 64 64 65 65
59 53 46 44 37 35 35 39 40 41 43 43 45 47 48 48 55 58 59 62 67 67 68 69 70 71 70 69 68 68 66 65 65 64 63 65 65 64 63 63 62 62 64 65 65 64 65 64 65
49 46 43 41 37 35 37 40 40 41 42 42 43 48 51 52 54 58 61 62 64 66 68 68 70 70 70 69 68 68 67 65 64 65 64 63 64 65 64 63 63 62 60 61 64 64 65 66 65
36 40 42 37 36 37 39 40 40 40 41 42 48 51 54 56 56 59 62 62 63 67 67 68 70 70 69 69 68 67 66 64 63 63 65 64 64 65 65 64 62 62 61 58 62 63 65 65 64
35 41 37 36 36 39 39 39 39 39 37 38 48 50 54 57 59 60 61 61 62 67 67 68 69 70 70 69 68 67 65 63 63 63 66 65 64 65 65 64 63 61 60 61 60 61 62 63 63
31 38 33 34 37 39 38 38 37 38 38 40 48 50 54 58 59 60 61 60 62 66 67 68 67 68 69 69 68 67 66 65 64 64 64 64 64 65 65 65 64 62 62 62 60 59 59 60 61
38 31 29 33 36 36 37 38 36 38 40 40 42 47 53 58 59 60 60 60 62 64 66 67 68 67 66 67 67 67 66 66 65 65 65 64 65 65 66 65 66 63 62 62 62 61 59 58 58
36 29 25 35 36 36 37 38 37 37 39 42 44 42 47 55 59 60 60 61 61 63 63 66 67 67 67 66 64 65 65 65 64 64 63 62 62 62 63 63 63 65 65 64 64 63 61 59 59
35 26 21 23 36 35 37 36 36 36 38 41 42 45 50 57 59 59 59 60 61 62 62 63 65 66 67 66 65 63 64 64 64 63 62 61 60 60 59 61 62 64 64 65 65 65 64 62 61
31 23 22 35 37 35 36 36 35 34 37 40 42 47 51 54 55 56 57 58 59 61 62 62 63 64 65 64 66 65 64 64 64 63 62 62 60 59 59 58 60 63 62 63 64 65 63 61 60
32 26 31 39 43 38 37 37 38 34 34 38 39 41 44 43 43 45 45 46 56 58 61 62 62 63 63 63 64 65 65 65 64 63 62 62 60 59 58 58 58 58 57 58 60 60 61 60 60
31 31 36 42 43 40 39 39 38 38 37 39 39 39 39 39 39 38 39 41 43 44 45 58 62 62 63 63 64 64 65 65 65 64 63 63 62 60 60 59 58 58 59 58 57 58 58 59 60
36 34 41 43 42 41 42 40 38 37 38 38 40 40 40 40 39 39 40 42 42 42 44 45 57 61 62 62 63 64 64 64 64 64 64 64 63 62 61 60 60 59 59 59 58 58 57 58 58
38 35 39 42 41 41 40 39 37 36 37 37 38 39 41 38 38 38 39 39 41 43 43 47 49 57 61 62 63 62 63 64 64 64 64 64 64 63 62 61 60 60 60 59 58 58 58 57 58
40 35 36 39 39 38 36 31 35 37 36 36 37 37 36 36 37 36 37 39 41 43 43 44 49 51 54 58 61 63 63 64 64 64 64 63 64 64 63 63 62 61 61 60 59 59 59 58 58
36 32 31 32 38 37 29 22 23 28 34 33 34 36 35 33 34 35 36 40 40 41 43 45 46 45 46 51 53 58 62 63 63 64 64 64 63 64 64 63 63 63 62 62 61 60 59 59 58
34 26 26 32 35 36 30 25 30 35 33 33 33 33 33 33 33 37 40 40 42 43 44 46 48 50 52 50 49 54 56 59 62 63 65 64 64 64 64 64 64 64 63 63 62 61 60 60 59
30 28 25 26 35 34 35 31 32 34 36 35 35 36 35 33 33 39 40 42 42 42 42 44 46 49 50 53 52 54 56 58 61 62 64 64 65 64 64 64 63 63 62 62 62 61 61 61 60
30 28 25 29 36 34 34 34 34 34 33 34 34 34 33 33 38 39 40 40 39 39 40 41 43 46 47 50 55 55 56 59 59 58 61 62 61 61 60 62 62 62 62 61 61 60 60 59 60
31 29 28 32 36 34 34 33 34 33 32 31 31 32 32 33 37 38 38 38 37 37 38 38 39 42 43 45 51 58 57 52 52 53 54 49 47 48 49 51 53 54 57 57 57 58 58 59 59
31 29 29 28 33 33 31 26 27 29 33 32 31 31 32 35 36 36 36 36 36 35 35 36 36 37 37 38 49 57 54 51 49 50 46 41 39 40 43 43 47 48 49 49 49 50 52 54 56
32 33 33 33 32 25 29 22 27 25 25 28 29 32 34 35 35 34 33 33 34 33 33 33 33 32 32 34 38 42 41 39 40 38 38 38 35 35 38 39 40 42 43 43 45 46 48 49 51
33 35 33 34 33 29 28 25 26 27 24 27 30 34 34 34 34 32 32 32 32 31 30 30 31 30 28 27 32 33 32 34 33 34 33 33 32 31 32 35 37 37 39 40 40 42 45 46 47
36 34 33 33 30 21 27 24 22 23 24 25 32 34 33 33 32 31 30 29 28 27 27 27 28 29 26 25 25 29 28 27 29 29 30 31 30 30 30 31 33 34 35 36 38 41 41 42 43
35 33 26 24 25 19 24 26 23 23 24 30 32 33 33 32 31 30 27 26 25 24 24 25 25 26 26 23 23 24 25 25 25 27 28 28 27 28 28 29 30 31 33 35 37 38 38 40 39
35 33 24 17 21 22 25 22 22 26 30 30 32 33 33 31 31 29 27 25 24 23 22 23 23 23 24 22 21 22 23 24 24 24 26 26 26 27 27 28 28 29 32 33 35 34 35 36 38
36 33 33 27 22 22 23 23 21 27 30 32 32 32 31 31 30 28 25 23 22 21 21 21 21 21 22 22 21 20 21 22 22 23 24 25 25 23 26 27 28 29 30 31 32 32 33 33 34
35 34 28 26 12 14 18 19 18 23 25 30 32 31 31 31 29 27 25 22 21 20 19 20 20 20 21 21 20 20 20 21 21 22 23 23 24 25 26 27 28 28 28 29 29 30 30 30 32
32 31 31 31 26 18 17 16 21 26 27 28 31 32 32 30 28 26 25 23 20 19 19 18 19 19 19 20 20 20 20 20 20 21 22 23 24 24 25 26 27 26 26 26 26 26 27 28 30
32 30 31 23 22 24 23 20 24 27 27 29 29 31 31 30 28 26 24 23 20 19 18 18 18 18 18 19 19 19 19 20 20 20 22 23 23 24 24 26 26 25 25 25 25 25 26 26 27

GFSSGP_sfc_dewp_162.txt.gz
Dewpoint
61 56 51 46 39 39 36 38 41 41 41 43 47 47 47 49 49 42 60 66 67 69 69 69 70 70 69 68 67 66 65 65 65 65 67 66 65 64 64 63 62 62 64 65 65 64 65 65 64
57 51 46 43 37 35 36 41 40 41 43 47 47 49 48 50 56 59 60 66 68 68 69 69 70 70 69 68 68 67 65 65 64 64 65 65 64 64 63 62 62 63 65 65 64 64 63 65 64
44 48 42 40 37 35 37 40 41 41 43 43 45 51 52 51 57 59 61 66 67 67 68 69 70 70 69 69 68 67 66 65 65 65 64 65 64 64 63 63 62 62 61 63 63 64 65 66 64
37 40 41 37 37 39 39 40 40 40 41 47 50 51 55 56 56 60 62 65 66 67 68 68 70 70 69 69 68 68 67 65 63 64 65 64 64 65 65 63 62 61 60 62 61 63 66 65 63
38 41 36 37 37 39 40 40 40 39 38 46 50 51 53 57 60 61 62 64 66 66 67 68 69 70 70 69 68 67 65 64 63 64 66 65 64 65 65 63 62 61 60 61 60 62 63 64 64
31 37 33 35 37 39 38 39 39 37 43 48 51 51 53 58 60 61 61 62 66 66 67 68 67 68 69 69 68 68 66 65 64 65 65 64 65 65 65 64 63 61 61 62 60 59 60 62 62
32 30 30 33 36 37 37 38 38 38 40 41 50 50 53 57 59 61 60 61 65 66 67 67 68 67 66 67 67 67 66 66 65 65 66 66 66 65 67 66 66 62 62 62 62 60 59 58 59
35 29 25 36 35 36 38 37 38 39 39 42 49 48 50 56 59 60 60 61 63 65 66 66 66 67 67 66 64 65 65 65 65 64 63 62 62 62 63 63 64 65 65 64 64 63 61 59 59
33 25 18 20 36 36 38 36 36 37 40 41 44 46 48 57 60 59 59 60 61 63 64 65 66 66 66 66 65 63 63 64 63 63 61 61 61 60 59 61 62 64 65 65 66 65 64 63 61
29 23 22 33 36 36 37 36 35 37 39 41 46 51 56 58 58 58 58 59 60 61 62 63 65 65 66 66 66 65 64 64 63 63 62 61 60 59 60 58 60 62 63 64 65 65 64 62 60
31 25 30 38 43 37 36 36 35 36 35 39 44 49 52 55 56 57 58 58 59 60 62 62 63 64 65 64 65 65 65 64 64 63 62 62 61 59 58 58 58 59 58 58 59 60 61 60 59
30 34 38 42 43 40 38 38 37 36 36 38 42 45 44 44 45 43 41 41 48 51 57 62 62 63 63 63 63 64 64 64 64 64 63 63 62 60 59 58 58 58 58 57 57 57 57 58 59
34 34 42 43 42 41 41 40 38 38 37 39 40 40 39 39 39 39 40 41 42 42 44 47 61 62 63 62 63 63 64 64 64 64 64 64 63 62 61 60 59 59 59 59 58 58 57 57 57
38 37 39 42 41 40 39 39 38 37 38 37 38 39 40 39 38 38 38 39 40 42 43 47 50 58 62 62 62 63 63 63 64 64 64 64 64 63 62 62 61 60 60 59 59 58 58 58 57
38 34 35 38 39 38 36 31 35 37 37 35 36 38 37 36 36 37 38 39 41 43 43 45 46 47 53 59 61 63 62 63 63 63 63 64 64 64 63 63 62 62 61 60 60 59 59 58 58
34 31 29 31 38 37 28 24 23 28 30 33 35 36 36 35 34 35 38 41 43 44 45 47 50 51 52 51 49 56 62 63 63 63 64 63 63 64 64 64 63 63 63 62 62 61 60 59 59
34 23 27 27 37 35 29 22 25 35 32 31 33 33 34 33 34 39 42 43 43 43 44 45 48 48 49 51 54 50 55 58 62 63 64 64 63 64 64 64 64 64 63 63 62 62 61 60 60
29 29 27 23 33 35 33 31 31 34 35 34 34 34 35 35 36 40 41 40 40 40 41 43 45 46 47 50 55 52 56 60 60 62 62 62 61 62 64 63 63 63 62 62 61 61 61 61 60
30 28 26 25 35 33 33 34 35 35 35 34 35 35 35 34 39 39 39 38 37 38 38 39 40 41 43 47 53 56 56 56 55 54 50 49 51 52 54 56 55 57 60 59 58 60 59 59 59
33 29 28 32 35 33 32 33 34 34 34 33 33 33 34 37 38 37 37 36 35 35 35 35 36 37 37 40 49 57 52 52 51 44 41 41 44 45 45 49 50 50 52 50 51 53 55 58 58
31 29 28 29 33 32 28 24 25 28 33 33 32 32 32 37 37 35 35 34 34 33 33 32 32 32 32 35 46 51 51 47 46 42 37 37 37 39 42 42 43 45 46 47 48 48 50 51 53
30 33 32 32 31 25 29 17 26 26 25 31 33 33 35 35 34 33 33 32 31 31 31 30 30 28 28 31 36 38 41 39 37 37 35 33 33 34 37 38 39 40 41 41 43 45 46 47 47
32 34 33 33 32 28 27 23 22 27 25 26 32 34 34 34 33 32 31 31 29 29 29 29 28 26 26 27 31 33 33 34 34 34 31 29 30 30 32 34 35 37 38 39 41 41 42 44 45
35 34 33 33 30 22 28 21 15 23 24 28 33 34 34 33 31 31 30 28 26 26 26 27 27 25 24 25 26 27 27 28 30 29 29 29 29 29 29 31 33 34 35 37 39 39 39 40 39
34 30 24 18 23 20 25 25 22 23 24 29 33 33 33 32 30 28 27 25 24 24 24 25 25 24 22 22 23 24 25 25 26 27 27 27 27 27 28 29 30 32 34 36 35 36 36 37 36
33 30 23 13 19 21 26 24 22 26 29 30 33 33 32 31 30 28 27 25 24 23 23 23 23 23 22 21 21 22 23 24 24 25 26 26 26 26 28 29 30 31 31 33 32 33 34 35 35
35 32 31 26 19 20 22 23 22 29 30 32 33 32 31 31 30 28 26 24 23 21 22 22 21 22 22 20 20 21 21 22 22 23 24 25 25 25 27 29 29 29 29 31 31 31 32 32 33
35 34 29 28 12 13 18 19 17 21 25 31 31 31 31 31 30 27 25 23 22 21 20 21 20 21 20 20 20 20 21 21 22 23 24 24 25 26 27 28 27 26 27 27 28 29 30 31 31
32 31 31 29 24 18 16 16 19 26 27 31 32 32 31 31 30 28 25 22 21 20 19 19 19 19 20 19 20 21 21 21 22 22 23 24 25 25 27 26 26 26 25 26 26 26 28 28 28
32 31 31 24 21 23 23 19 25 26 28 31 31 32 32 32 31 28 26 24 21 20 19 19 19 19 19 19 19 20 20 21 21 21 22 24 24 25 26 25 25 25 24 24 25 25 26 25 25

GFSSGP_sfc_dewp_165.txt.gz
Dewpoint
60 53 49 45 38 39 37 38 41 41 41 44 48 44 43 50 47 37 59 65 68 68 69 69 70 70 68 67 66 66 65 65 65 66 67 66 65 64 63 62 62 64 65 64 64 64 65 65 62
54 48 46 41 37 35 37 41 40 41 44 49 49 49 49 50 57 59 62 66 68 68 69 69 69 70 68 68 67 65 65 64 64 65 65 65 64 63 62 61 62 62 65 64 64 63 63 65 63
40 46 42 39 37 36 37 40 41 43 47 45 48 53 52 52 58 59 61 66 68 68 68 69 69 70 69 68 67 66 65 65 65 64 64 64 64 63 62 63 63 62 62 63 63 64 64 65 63
36 42 40 37 37 38 39 40 41 42 42 48 50 51 54 57 57 60 65 67 66 67 68 68 70 70 69 69 68 67 65 64 64 65 64 64 64 64 63 62 61 61 60 61 61 64 66 65 62
38 40 37 38 40 39 42 41 40 39 41 49 51 50 51 58 59 61 65 66 66 67 67 68 69 70 70 69 68 67 66 64 63 64 65 64 64 65 65 63 61 61 59 60 60 61 63 64 63
31 36 36 36 38 38 39 40 39 38 45 49 51 51 52 58 60 61 63 65 66 66 67 68 67 68 69 69 69 68 66 65 64 64 66 65 65 65 65 64 62 60 60 61 60 59 60 61 62
31 31 32 35 38 38 37 38 37 43 45 46 51 49 52 56 60 61 61 64 66 66 67 67 67 67 66 67 67 67 67 66 65 66 66 66 66 66 66 66 65 62 61 62 61 60 59 58 59
34 29 27 34 36 37 37 37 39 41 39 46 51 49 49 56 59 60 60 62 64 65 66 66 66 66 66 66 64 64 65 65 65 64 64 63 62 63 62 64 65 66 65 64 64 64 62 60 60
32 23 18 25 36 37 37 35 37 38 40 41 45 51 51 57 60 59 58 60 61 64 64 65 65 65 65 65 64 63 63 63 63 63 61 61 61 60 59 60 63 64 65 66 65 65 64 63 62
25 22 20 27 39 37 37 35 35 39 40 44 48 53 57 59 58 58 58 59 60 61 63 64 64 64 65 66 65 64 64 64 63 63 61 61 60 59 59 58 59 62 62 64 65 65 64 62 60
30 22 26 36 42 42 37 36 35 38 40 42 46 52 56 57 58 58 58 59 59 59 61 63 63 64 64 65 65 64 64 64 63 63 62 61 61 60 59 58 58 58 58 59 59 59 60 60 59
29 34 38 41 42 40 37 37 35 36 38 39 46 52 53 55 56 57 57 57 55 58 60 62 63 63 64 65 64 64 63 63 63 63 63 62 62 61 59 58 58 58 58 57 57 57 57 57 57
32 33 42 42 41 41 41 39 38 40 37 40 46 47 48 51 50 47 46 43 43 49 49 55 61 62 63 63 63 63 63 63 63 63 63 63 63 62 61 60 59 58 59 58 58 58 58 57 57
36 36 39 41 40 39 38 39 38 39 38 38 41 41 41 40 39 38 39 39 41 42 43 47 50 58 62 62 62 63 63 63 63 63 63 63 63 63 63 62 61 60 60 59 59 59 58 58 58
37 33 34 38 38 37 35 32 35 37 37 35 37 39 39 39 37 37 38 39 41 43 46 48 49 50 55 60 61 62 63 63 62 63 63 63 63 63 63 63 63 62 62 61 60 59 59 58 58
33 31 27 30 38 37 32 30 25 28 30 34 34 37 37 37 35 39 41 43 44 45 46 47 48 48 50 52 50 52 59 62 62 63 64 64 64 64 64 64 63 64 63 63 63 62 61 60 60
32 23 28 28 35 34 30 27 24 33 33 31 30 34 35 34 39 41 41 41 42 42 43 45 46 46 47 48 54 50 56 58 60 61 63 64 63 63 63 64 64 64 63 63 62 62 61 61 60
27 26 27 24 29 34 32 30 30 33 35 34 35 34 33 34 38 40 39 39 39 39 40 41 42 42 43 48 54 54 58 57 58 53 53 54 55 57 60 59 59 62 62 61 61 60 61 60 60
29 26 22 24 27 33 33 33 33 34 35 35 35 35 35 35 39 38 37 37 36 36 36 37 38 38 40 45 51 54 56 54 47 44 44 46 48 49 52 54 54 56 54 54 53 57 59 59 59
33 29 28 31 35 33 32 31 33 33 33 33 32 33 35 37 38 36 35 35 34 33 33 33 33 33 35 38 46 55 52 46 42 40 38 39 42 44 44 48 49 49 51 50 50 51 53 56 57
32 29 29 28 32 31 27 23 24 26 33 33 34 33 34 37 37 35 34 33 32 31 31 30 30 30 31 34 49 50 48 46 43 38 34 35 37 39 42 41 43 43 45 46 46 48 47 48 50
30 32 30 32 29 24 29 18 25 24 26 28 33 32 33 37 35 34 33 31 30 30 29 28 28 28 28 32 39 43 43 38 37 34 32 32 33 34 36 37 39 39 41 41 43 43 44 46 44
30 34 32 32 30 27 26 24 20 25 23 24 32 34 35 35 33 32 31 30 29 28 28 27 26 25 26 28 31 36 35 36 35 33 29 28 29 30 32 34 35 37 38 39 40 40 40 41 42
35 33 32 31 29 21 27 19 12 18 24 28 33 34 34 33 32 31 30 28 26 26 27 26 24 23 24 25 26 28 30 30 31 29 28 28 28 29 30 31 34 35 37 37 37 38 37 37 38
33 29 19 20 23 18 25 24 21 21 25 26 32 33 33 31 30 29 27 26 24 24 25 25 24 21 22 23 24 25 25 26 26 26 26 26 26 27 29 31 32 33 34 34 35 35 35 35 35
33 27 21 12 17 18 26 24 22 26 30 32 33 33 32 30 29 28 27 26 24 23 23 24 23 21 20 21 22 23 23 24 24 25 26 26 26 27 29 30 30 31 32 32 32 33 33 33 33
33 31 28 25 17 19 22 23 23 28 30 32 32 32 31 31 30 29 28 26 24 22 22 22 22 22 20 20 21 21 22 22 23 24 25 25 26 27 29 29 27 28 28 30 30 31 31 31 31
34 33 29 24 13 12 18 19 18 20 25 31 31 31 31 31 30 29 27 25 24 22 21 21 21 21 20 20 20 20 21 22 23 24 24 25 26 27 27 27 26 26 27 27 28 29 30 29 29
32 32 31 28 24 17 14 16 20 25 27 31 31 32 31 31 31 30 28 25 23 22 20 20 20 20 19 20 20 21 21 22 23 23 24 24 26 27 26 26 26 26 25 26 26 27 27 27 27
32 31 31 25 24 23 22 19 24 25 29 32 32 32 32 32 32 31 29 26 23 22 20 19 20 20 20 19 20 20 20 21 21 22 23 24 25 26 26 26 25 25 24 25 26 25 25 25 25

GFSSGP_sfc_dewp_168.txt.gz
Dewpoint
60 50 47 44 38 38 37 38 42 41 43 48 47 43 41 49 46 35 58 65 67 68 69 69 70 69 68 67 66 66 66 65 65 66 66 65 64 63 62 62 64 65 65 64 63 64 65 63 62
51 46 45 40 37 35 36 39 40 41 47 50 49 50 49 47 56 57 60 65 68 68 69 69 69 70 68 67 66 65 64 64 64 67 66 65 64 62 61 62 62 65 65 64 63 63 64 64 62
39 45 41 38 37 35 37 40 40 44 49 45 50 53 50 51 56 59 61 67 68 68 68 68 69 70 68 67 67 65 65 65 64 64 64 64 63 62 62 63 64 63 62 62 63 64 64 65 62
38 42 40 36 37 39 40 40 42 45 44 48 51 49 52 56 58 60 65 67 67 67 68 68 70 70 69 68 67 66 65 65 65 64 63 64 64 63 62 62 61 61 61 60 60 64 66 65 63
39 40 38 37 39 40 42 41 43 43 44 48 49 48 50 58 60 63 66 66 65 66 67 67 69 70 70 68 68 67 66 64 63 64 64 63 64 65 64 62 60 60 59 60 59 61 63 64 64
30 37 37 36 38 39 40 40 40 39 46 49 50 50 51 58 60 62 65 65 66 66 67 67 67 68 69 69 69 68 66 64 63 63 66 65 64 65 64 63 61 60 59 60 59 59 59 61 61
30 33 35 37 37 39 38 40 37 43 47 47 51 47 50 55 59 61 64 64 65 66 66 66 67 66 65 67 67 67 67 66 66 66 66 66 66 66 66 66 65 62 61 61 61 60 59 58 58
32 31 32 33 37 38 38 38 39 44 44 50 51 46 45 55 60 61 61 63 64 65 65 65 65 66 65 65 64 65 65 65 65 64 64 63 62 63 63 63 65 65 64 64 64 64 62 61 61
30 21 21 26 36 39 38 36 39 40 43 44 47 50 51 58 60 59 58 60 61 64 64 64 65 65 65 65 64 63 63 63 63 62 61 61 60 60 59 60 62 63 64 66 65 65 65 63 62
23 19 18 21 38 39 37 36 36 40 41 43 46 52 56 59 58 58 58 58 59 61 63 64 64 64 64 66 65 63 63 63 62 62 61 61 60 59 59 58 59 61 61 63 65 65 64 62 60
29 16 22 35 42 43 37 36 35 39 40 42 45 51 56 57 57 58 57 58 59 58 61 63 63 63 64 64 64 63 63 63 63 62 61 61 61 60 59 58 57 58 57 58 59 58 58 58 59
32 32 35 41 42 39 37 38 35 40 39 39 45 54 55 56 57 57 57 57 57 58 60 62 63 63 63 64 63 63 63 63 62 62 62 62 62 61 61 59 58 58 58 58 58 57 57 57 57
31 32 41 41 41 40 40 39 39 39 38 40 49 52 54 56 56 56 57 56 56 50 54 58 60 62 63 63 63 63 63 62 62 62 62 62 62 62 62 60 60 59 59 58 58 58 58 58 57
35 36 37 41 40 39 39 40 40 39 38 42 47 49 50 53 53 48 42 41 41 43 43 47 50 54 61 62 62 62 62 62 62 62 62 62 62 63 62 62 62 61 60 59 59 59 59 58 58
36 33 33 38 39 39 34 33 36 36 36 38 41 42 42 42 40 37 37 39 40 44 47 49 50 51 52 57 60 61 62 62 62 62 63 63 63 63 62 63 63 63 62 61 60 60 60 59 59
32 31 26 28 38 36 32 31 31 30 29 35 35 39 38 37 37 41 42 43 44 45 46 46 46 46 47 48 53 49 55 60 61 61 63 64 64 64 63 63 63 63 63 63 63 62 61 61 60
31 20 27 26 34 34 32 29 30 33 30 29 30 29 35 36 39 41 41 41 41 42 42 43 43 42 44 46 51 52 58 59 60 59 60 58 59 62 62 61 63 63 63 63 62 62 61 61 60
24 25 25 25 26 34 31 30 30 29 33 33 34 34 32 34 37 39 38 38 38 38 38 40 40 39 41 47 54 56 56 53 48 48 49 50 53 56 57 57 58 60 62 61 59 60 60 60 60
29 24 21 24 25 33 32 31 32 33 35 34 34 35 35 34 40 38 36 36 36 35 35 36 36 35 39 44 51 55 54 49 44 42 42 43 46 48 51 52 52 55 54 53 52 54 58 58 58
30 27 27 30 35 33 32 32 33 33 33 34 33 33 34 36 38 36 35 34 33 32 32 33 32 32 34 38 46 53 49 42 39 38 37 38 40 43 43 46 47 47 51 49 49 50 50 54 53
31 28 27 28 31 31 27 24 24 25 33 33 34 33 33 36 37 36 34 32 31 30 29 30 29 30 31 35 48 48 46 44 42 36 34 35 36 38 41 41 42 43 44 44 44 45 45 46 48
30 32 30 32 27 24 28 18 25 23 24 26 28 33 33 36 36 35 33 31 30 29 28 27 28 28 29 32 41 47 45 40 37 33 32 32 32 34 36 37 38 40 41 40 42 42 42 44 44
30 32 31 32 29 26 26 24 23 21 22 20 28 33 35 36 35 34 32 30 28 28 27 25 25 26 26 29 33 37 36 37 35 32 29 29 30 31 33 35 36 38 39 38 38 38 38 39 39
34 32 31 30 29 20 26 22 12 11 20 25 33 34 34 33 32 31 29 27 26 26 26 25 23 23 24 26 27 30 32 32 31 28 27 27 28 30 31 33 35 35 35 36 36 36 36 36 36
33 28 20 20 22 17 23 24 21 21 23 26 29 33 33 32 31 29 27 26 25 24 25 25 22 21 22 23 24 25 26 26 26 26 26 25 26 28 30 31 32 32 33 34 34 34 34 34 34
31 24 19 8 16 16 25 22 22 26 32 33 33 33 31 31 30 29 28 26 25 24 23 24 22 20 20 21 22 23 24 24 25 25 25 26 27 29 29 29 29 30 31 31 32 32 32 32 32
32 29 25 23 16 19 22 23 22 27 31 32 32 32 31 30 29 29 28 27 25 23 23 22 22 21 20 20 21 21 22 23 23 24 25 25 27 28 27 27 27 27 28 30 30 31 30 30 30
33 33 27 22 9 12 17 18 18 20 26 31 31 31 31 31 30 30 29 27 26 24 22 21 21 21 20 20 20 21 22 22 23 24 24 25 27 27 26 26 26 26 27 28 29 29 28 27 27
32 30 29 26 22 16 13 15 20 23 27 30 32 32 31 31 31 30 30 28 26 24 21 21 20 20 20 20 21 21 22 22 23 23 24 25 26 25 26 26 25 25 26 27 26 26 26 26 25
32 30 29 23 22 21 20 19 24 25 29 31 32 32 32 32 32 32 31 29 26 24 22 20 20 20 20 20 20 20 21 21 22 22 23 25 25 25 25 25 25 24 25 25 25 24 25 24 22

GFSSGP_sfc_dewp_171.txt.gz
Dewpoint
58 48 48 46 41 41 37 38 41 41 42 46 45 44 43 49 46 36 60 66 66 67 69 69 70 69 67 67 67 67 66 66 66 66 66 65 64 63 62 64 66 64 63 62 62 65 64 63 62
50 46 47 43 39 36 36 39 41 42 48 50 50 48 49 46 57 59 61 66 67 68 68 68 69 69 68 67 66 65 65 65 65 67 65 64 63 62 62 62 64 65 64 63 63 63 65 63 62
41 45 44 41 38 35 37 40 41 44 49 46 51 52 50 53 58 60 62 67 68 68 68 69 69 70 68 67 66 65 65 65 64 65 65 64 63 63 63 64 63 62 62 62 63 64 65 63 62
42 44 43 38 38 39 40 40 43 47 46 49 50 49 54 56 58 60 66 67 67 68 68 68 70 69 68 68 67 66 65 66 65 63 64 64 64 63 63 62 62 61 62 60 61 66 65 64 64
40 43 40 39 40 41 40 41 46 46 44 47 48 49 52 58 60 64 66 67 66 67 68 68 69 70 69 68 67 67 65 64 64 65 64 63 63 65 64 62 61 60 61 60 59 61 63 64 64
33 41 38 37 39 40 41 42 44 41 46 50 49 49 52 59 61 65 66 66 66 67 68 68 67 68 69 69 69 68 67 65 64 64 65 65 64 65 65 63 61 60 59 60 59 59 59 59 59
33 38 38 37 38 39 40 41 41 43 47 48 49 45 53 58 61 64 65 65 66 66 67 68 68 67 66 67 67 67 67 66 66 66 65 65 65 66 65 66 64 62 60 61 61 60 60 59 59
32 34 33 37 37 39 39 40 39 45 46 51 50 43 48 57 61 62 65 65 66 66 66 67 67 67 67 67 64 65 65 65 65 64 64 63 62 63 63 62 64 65 64 64 64 64 63 62 62
31 23 29 31 38 38 38 38 41 42 47 46 49 48 50 59 60 60 61 63 64 65 65 66 66 66 66 66 65 63 63 63 63 62 61 61 62 61 60 60 61 62 64 63 65 65 65 64 63
24 21 20 25 38 37 38 38 38 41 43 43 47 52 57 59 59 59 59 60 62 63 64 65 65 65 66 65 66 65 65 64 63 63 62 61 61 60 60 59 59 61 61 62 63 65 64 62 63
31 18 21 36 42 43 38 37 37 40 41 42 45 49 57 58 58 58 58 59 60 61 63 64 64 65 65 65 66 65 65 64 64 63 63 62 61 61 61 60 59 59 58 59 59 60 60 60 60
27 31 33 42 42 39 37 38 35 40 41 40 42 51 57 57 58 58 58 58 59 60 61 62 64 64 64 65 65 65 64 64 64 64 63 63 62 62 61 61 60 59 59 59 60 59 59 58 58
31 33 41 41 41 40 41 39 36 38 38 41 46 55 56 57 57 58 58 58 58 58 56 57 61 63 63 64 64 64 64 64 64 64 63 63 62 62 62 62 61 61 60 59 59 59 59 59 59
35 36 38 41 40 39 39 39 38 38 38 44 50 53 55 56 56 55 53 54 50 49 45 49 51 53 60 63 64 64 64 64 63 63 63 63 63 62 63 63 62 62 61 60 60 59 59 59 59
36 32 33 36 39 38 35 34 36 37 38 42 47 48 50 51 49 39 38 41 42 46 49 49 49 49 51 55 59 62 63 63 63 63 64 64 64 63 63 63 63 63 63 62 61 61 60 60 61
32 30 24 28 38 37 33 24 35 34 35 37 41 41 42 38 38 41 42 44 45 46 46 45 45 45 46 48 53 50 55 60 62 62 63 64 64 64 64 64 64 64 64 64 63 63 63 62 62
30 18 27 26 34 36 32 28 31 33 31 34 35 35 37 37 40 41 41 41 41 42 42 42 42 42 44 47 53 58 58 57 55 54 55 56 58 61 63 62 62 62 64 63 62 62 62 61 61
22 25 25 22 27 35 31 31 31 30 33 32 32 34 33 36 37 39 38 38 38 38 39 39 40 39 43 50 56 56 55 50 48 47 47 49 51 53 57 57 57 59 61 58 57 58 60 60 60
28 23 21 24 27 33 31 31 31 32 33 33 33 34 35 34 39 38 37 37 36 35 36 36 36 36 40 46 55 55 53 48 44 42 41 42 44 46 50 51 51 54 54 52 51 53 56 58 56
27 24 25 29 35 33 31 31 32 33 33 34 33 33 34 36 38 37 35 34 33 32 33 33 33 34 36 41 47 53 48 42 39 38 36 37 39 42 42 45 45 45 49 48 47 49 50 53 53
31 26 27 24 30 30 27 23 24 25 33 33 34 34 34 35 37 37 34 33 32 30 30 30 31 32 33 38 49 46 45 43 41 37 33 34 35 37 40 40 42 42 44 44 45 45 47 48 50
30 32 30 31 28 22 27 12 26 24 23 25 27 31 34 35 38 36 33 31 31 29 28 29 29 29 30 34 46 48 47 43 36 32 32 31 33 34 37 38 40 41 41 40 42 41 43 47 45
31 33 31 31 30 28 27 25 25 19 18 23 29 34 35 35 37 35 33 31 29 29 27 26 27 27 28 30 35 39 38 37 33 31 29 29 30 33 35 37 38 38 38 38 38 39 40 41 41
34 32 30 30 29 20 24 21 14 10 15 24 30 34 34 34 33 32 30 29 27 28 28 26 25 24 25 27 29 33 35 33 31 29 28 27 29 31 32 34 35 35 36 35 35 37 37 37 37
32 25 19 15 16 11 22 23 22 21 23 26 28 33 33 32 31 29 28 27 26 26 27 25 23 22 23 24 25 27 28 28 27 26 26 26 27 30 30 31 32 33 33 33 34 34 34 34 34
31 22 16 1 13 13 25 20 19 27 32 33 33 33 32 31 30 29 28 27 26 26 26 25 22 20 21 22 23 24 24 24 25 25 26 27 29 29 29 29 29 30 31 31 32 32 31 32 32
32 27 24 22 15 19 22 23 22 29 31 32 32 32 31 31 30 29 28 27 26 25 25 24 23 21 20 21 22 22 23 23 23 24 25 27 29 27 27 27 27 28 30 30 30 30 29 29 30
32 31 26 23 10 12 15 18 16 22 27 31 32 32 31 31 30 30 29 28 27 25 24 23 22 21 20 20 21 21 22 23 24 24 26 27 27 26 26 26 26 27 28 28 28 28 27 27 27
31 29 28 26 21 15 12 13 20 22 26 30 32 32 32 31 31 31 30 29 28 26 23 22 22 21 20 21 21 22 22 23 23 24 25 27 26 25 25 25 26 26 26 26 25 25 25 22 23
32 30 28 22 21 21 19 18 25 26 27 30 32 32 32 32 32 32 31 30 27 26 24 22 21 21 21 21 21 21 22 22 22 23 25 26 25 25 25 24 24 24 24 25 24 24 22 20 21